User: anonymous   Login
Location: Axtheid
(49.6213°N, 11.8205°E)
Time: 07:16:17
(UTC+00:00)
Language:

CZ-4B R/B - Orbit

View from above orbital plane
View from above orbital plane
View from above satellite
View from above satellite

Ground track
Ground track

The orbit data is extracted from the following two-line orbital elements,

1 33410U 08053C   20157.72808758  .00000053  00000-0  88536-5 0  9990
2 33410  97.8651 143.8970 0118568 155.3625 205.3327 14.99180320633244
Epoch (UTC): 05 June 2020 17:28:26
Eccentricity: 0.0118568
inclination: 97.8651°
perigee height: 487 km
apogee height: 652 km
right ascension of ascending node: 143.8970°
argument of perigee: 155.3625°
revolutions per day: 14.99180320
mean anomaly at epoch: 205.3327°
orbit number at epoch: 63324

The dashed part of the orbit path shows where the satellite is in the earth's shadow,  

DLR